www.pogodaiklimat.ru

Погода и климат >> Архив погоды >> Узбекистан >> Нукус


ПОГОДА в Нукусе

  • Прогноз погоды в Нукусе
  • Монитор погоды в Нукусе
  • Климат города

АРХИВ ПОГОДЫ в Нукусе

Время (UTC), дата Ветер
(напр.,м/с)
 
Видим.   Явления Облачность Т
(С)
Тd
(С)
f
(%)
Тe
(С)
Тes
(С)
Комфортность P
(гПа)
Po
(гПа)
Тmin
(С)
Tmax
(С)
R
(мм)
R24
(мм)
S
(см)
06 20.05 В 2 20 км 1/0
[Ci fib]
+30.0 0.0 14 +27 +42 жарко 1018.8 1010.3 +15.2
09 20.05 Ю 2 20 км 5/3 1500 м
[Cu hum Ac trans]
+31.5 -0.2 13 +28 +39 жарко 1017.8 1009.3
12 20.05 СЗ 2 20 км 4/0
[Ac trans]
+32.0 -0.7 12 +29 +35 жарко 1016.8 1008.3
15 20.05 СВ 2 20 км 4/0
[Ac trans]
+30.1 -0.2 14 +27 +27 жарко 1016.6 1008.1 +33.1
18 20.05 С 1 20 км 1/0
[Ac trans]
+22.6 +5.0 32 +23 +23 комфорт 1017.8 1009.0 +33.1
21 20.05 С 1 20 км 3/0
[Ac trans]
+20.8 +5.8 38 +23 +23 комфорт 1017.1 1008.3
00 21.05 С 1 20 км ясно +17.2 +6.5 49 +18 +18 1017.6 1008.6
03 21.05 СВ 2 20 км ясно +22.0 +2.7 28 +22 +26 комфорт 1018.5 1009.7
06 21.05 С 6 20 км ясно +30.0 -4.4 10 +26 +33 жарко 1017.6 1009.1 +16.4
09 21.05 С 11 20 км 1/0
[Ci fib]
+31.8 -9.8 6 +27 +28 жарко 1016.3 1007.8
12 21.05 С 6 20 км 1/0
[Ci ing]
+32.4 -9.4 6 +28 +31 жарко 1015.6 1007.1
15 21.05 С 4 20 км 1/0
[Ci fib]
+28.8 -8.2 8 +25 +25 комфорт 1015.8 1007.1 +32.7
18 21.05 С 3 20 км ясно +18.9 -1.9 24 +19 +19 1016.9 1007.9 +32.7
21 21.05 С 2 20 км ясно +16.5 +0.2 33 +17 +17 1016.3 1007.3
00 22.05 С 3 20 км ясно +14.9 -0.2 36 +14 +14 1016.5 1007.4
03 22.05 С 3 20 км ясно +20.1 -5.0 18 +20 +23 1017.1 1008.3
06 22.05 СЗ 3 20 км ясно +30.1 -4.7 10 +27 +40 жарко 1017.2 1008.7 +14.1
09 22.05 СЗ 4 20 км ясно +32.5 -5.7 8 +28 +41 жарко 1017.1 1008.6
12 22.05 С 3 20 км 3/0
[Ci fib]
+33.4 -10.7 5 +29 +35 жарко 1016.4 1007.9
15 22.05 СЗ 4 20 км 5/0
[Ci ing]
+29.6 -3.6 11 +26 +26 жарко 1016.6 1007.9 +33.8
18 22.05 СЗ 2 20 км 5/0
[Ci ing]
+23.3 -4.4 15 +21 +21 комфорт 1017.3 1008.5 +33.8
21 22.05 З 2 20 км 3/0
[Ci ing]
+18.6 +0.9 30 +19 +19 1017.9 1008.9
00 23.05 С 3 20 км ясно +18.4 +8.8 54 +19 +19 1019.6 1010.6
03 23.05 С 7 20 км ясно +20.7 +5.6 37 +21 +22 комфорт 1020.7 1011.9
06 23.05 С 6 20 км ясно +24.7 +4.3 27 +24 +30 комфорт 1022.0 1013.3 +17.8
09 23.05 С 6 20 км ясно +29.3 -3.0 12 +26 +33 жарко 1021.7 1013.0
12 23.05 С 7 20 км 1/0
[Ci fib]
+30.1 -4.7 10 +27 +29 жарко 1021.2 1012.7
15 23.05 СВ 7 20 км ясно +27.8 -1.7 14 +25 +25 комфорт 1021.4 1012.7 +30.5
18 23.05 СВ 4 20 км ясно +23.1 -0.7 21 +22 +22 комфорт 1022.7 1013.9 +30.5
21 23.05 СЗ 2 20 км ясно +16.7 +3.6 42 +17 +17 1022.4 1013.4
00 24.05 СВ 4 20 км ясно +16.0 +2.5 40 +15 +15 1022.7 1013.7
03 24.05 СВ 6 20 км ясно +20.7 -2.7 21 +20 +22 1023.1 1014.2
06 24.05 СВ 7 20 км ясно +26.6 -5.7 11 +24 +28 комфорт 1022.5 1013.8 +14.5
09 24.05 СВ 7 20 км ясно +28.9 -8.6 8 +25 +30 комфорт 1020.6 1011.9
12 24.05 СВ 7 20 км ясно +30.6 -10.3 6 +26 +29 жарко 1017.9 1009.4
15 24.05 СВ 5 20 км ясно +28.1 -10.3 7 +24 +24 комфорт 1017.2 1008.5 +31.0
18 24.05 С 3 20 км ясно +18.5 -4.1 21 +19 +19 1017.2 1008.2 +31.0
21 24.05 С 2 20 км ясно +14.0 -3.8 29 +14 +14 1016.2 1007.1
00 25.05 С 1 20 км ясно +12.0 -4.1 32 +12 +12 1016.2 1007.1
03 25.05 СВ 4 20 км ясно +18.2 -8.6 15 +18 +21 1016.3 1007.3
06 25.05 СВ 4 20 км ясно +28.2 -9.0 8 +25 +35 комфорт 1015.0 1006.3 +11.4
09 25.05 СВ 4 20 км ясно +32.6 -11.2 5 +28 +41 жарко 1012.8 1004.3
12 25.05 СВ 2 20 км ясно +35.1 -13.9 4 +30 +38 жарко 1011.2 1002.7
15 25.05 С 3 20 км 1/0
[Ci fib]
+31.7 -6.0 8 +28 +28 жарко 1010.4 1001.9 +35.4
18 25.05 СВ 2 20 км ясно +21.7 -0.9 22 +21 +21 комфорт 1010.6 1001.9 +35.4
21 25.05 штиль 0 20 км ясно +19.8 -7.8 15 +19 +19 1009.2 1000.3
00 26.05 В 1 20 км ясно +15.9 -4.4 24 +17 +17 1007.9 999.0
03 26.05 ЮВ 3 20 км 1/0
[Ci ing]
+27.2 -4.4 12 +24 +28 комфорт 1007.3 998.7
06 26.05 Ю 3 20 км 3/0
[Ci fib]
+34.0 -0.2 11 +30 +43 жарко 1007.0 998.5 +15.7
09 26.05 ЮВ 2 20 км 5/0
[Ci ing]
+36.6 -4.7 7 +32 +49 жарко 1005.0 996.7
12 26.05 ЮВ 2 20 км 5/0
[Ci ing]
+38.3 -4.4 7 +34 +41 очень
жарко
1003.2 994.9
15 26.05 ЮВ 2 20 км 8/0
[Ci ing]
+34.2 -0.2 11 +31 +31 жарко 1002.1 993.9 +38.6
18 26.05 Ю 2 20 км 6/0
[Ci ing]
+25.9 -1.4 17 +24 +24 комфорт 1002.4 993.9 +38.6
21 26.05 ЮЗ 3 20 км 8/0
[Ac trans]
+28.0 -1.7 14 +25 +25 комфорт 1001.9 993.4
00 27.05 СЗ 10 2000 м мгла 8/0
[Ac trans]
+18.7 +3.0 35 +18 +18 1005.9 997.0
03 27.05 СЗ 12 500 м пыльная буря на расстоянии {ливн. осадки} 10/0
[Ac As]
+16.2 +4.8 47 +14 +14 1009.6 1000.7

 

Местоположение метеостанции Нукус (Каракалпакстан, Узбекистан): широта 42.45 долгота 59.62 высота над уровнем моря 77 м.

В архиве по умолчанию представлена погода в Нукусе за последнюю неделю. Архивные данные за месяц целиком и за предыдущие месяцы, начиная с января 2011 года, Вы можете получить, выбрав интересующий диапазон дат из раскрывающегося списка и нажав кнопку "Ввод!".


*Определитесь, кто Вы:
робот инопланетянин человек

Внимание! Время в таблицах - всемирное. Для получения местного времени необходимо прибавить поправку, которая в Нукусе равна 5 ч.

Смотрите также архив погоды в соседних городах и на ближайших метеорологических станциях:

Погода в Тахтакупыре (Каракалпакстан, Узбекистан) (3 км)
Погода в Тахиаташе (Каракалпакстан, Узбекистан) (6 км)
Погода в Кенеургенче (Дашогузский велаят, Туркменистан) (44 км)
Погода в Чимбае (Каракалпакстан, Узбекистан) (58 км)
Погода в Дашогузе (Дашогузский велаят, Туркменистан) (80 км)
Погода в Кунграде (Каракалпакстан, Узбекистан) (90 км)
Погода в Гурлене (Хорезмская область, Узбекистан) (92 км)
Погода в Шах-Сенеме (Дашогузский велаят, Туркменистан) (122 км)
Погода в Ургенче (Хорезмская область, Узбекистан) (125 км)
Погода в Хиве (Хорезмская область, Узбекистан) (133 км)

Пояснения к столбцам:

Ветер - указаны скорость ветра в м/с - средняя за 10 мин, порывы в срок и между сроками (в фигурных скобках) и направление, откуда дует ветер: С - северный, СВ - северо-восточный, В - восточный, ЮВ - юго-восточный, Ю - южный, ЮЗ - юго-западный, З - западный, СЗ - северо-западный.
Видимость - горизонтальная дальность видимости в метрах или километрах. При видимости от 1 до 10 км при отсутствии осадков обычно наблюдается дымка, при ухудшении видимости до 1 км и менее - туман. В сухую погоду видимость может ухудшаться дымом, пылью или мглою.
Явления - указаны атмосферные явления, наблюдавшиеся в срок или в последний час перед сроком; фигурными скобками обозначены явления, наблюдавшиеся между сроками (за 1-3 часа до срока); квадратными скобками обозначены град или гололедные отложения с указанием их диаметра в мм.
Облачность - указаны через наклонную черту общая и нижняя облачность в баллах и высота нижней границы облаков в метрах; квадратными скобками обозначены формы облаков: Ci - перистые, Cs - перисто-слоистые, Cc - перисто-кучевые, Ac - высококучевые, As - высокослоистые, Sc - слоисто-кучевые, Ns - слоисто-дождевые, Cu - кучевые, Cb - кучево-дождевые. Подробнее классификацию облаков см. в Атласе облаков (PDF).
T - Температура воздуха - температура, измеренная на высоте 2 м над землей.
Td - Температура точки росы - температура, при понижении до которой содержащийся в воздухе водяной пар достигнет насыщения.
f - Относительная влажность воздуха - влажноcть воздуха, измеренная на высоте 2 м над землей.
Te - Эффективная температура - температура, которую ощущает одетый по сезону человек в тени. Характеристика душности погоды. При расчете учитывается влияние влажности воздуха и скорости ветра на теплоощущения человека.
Tes - Эффективная температура на солнце - температура, которую ощущает человек, с поправкой на солнечный нагрев. Характеристика знойности погоды. Зависит от высоты солнца над горизонтом, облачности и скорости ветра. Ночью, в пасмурную погоду, а также при ветре 12 м/с и более поправка равна нулю.
P - Атмосферное давление - приведенное к уровню моря атмосферное давление.
Po - Атмосферное давление - измеренное на уровне метеостанции атмосферное давление.
Tmin - Минимальная температура - минимум температуры воздуха на высоте 2 м над землей.
Tmax - Максимальная температура - максимум температуры воздуха на высоте 2 м над землей.
R - Количество осадков - Количество выпавших осадков за период времени, мм. При наведении курсора мыши на число - период времени, за который выпало указанное количество осадков.
R24 - Количество осадков - Количество выпавших осадков за 24 часа, мм.
S - Снежный покров - Высота снежного покрова, см. При наведении курсора мыши на число - состояние снежного покрова и степень покрытия местности в баллах.